Regional Weather Roundup
Issued by NWS Charleston, SC

Current Version | Previous Version | Graphics & Text | Print | Product List | Glossary On
Versions: 1 2 3 4 5 6 7 8 9 10 11 12 13 14 15 16 17 18 19 20 21 22 23 24 25 26 27 28 29 30 31 32 33 34 35 36 37 38 39 40 41 42 43 44 45 46 47 48 49 50
000
ASUS42 KCHS 260412
RWRCHS

REGIONAL WEATHER ROUNDUP
NATIONAL WEATHER SERVICE CHARLESTON SC
1200 AM EDT SUN APR 26 2015

NOTE: "FAIR" INDICATES FEW OR NO CLOUDS BELOW 12,000 FEET WITH NO
SIGNIFICANT WEATHER AND/OR OBSTRUCTIONS TO VISIBILITY.

NOT ALL STATIONS ARE QUALITY CONTROLLED BY THE NATIONAL
WEATHER SERVICE. USE DATA WITH CAUTION...ESPECIALLY
DEWPOINT OBSERVATIONS.

SCZ027-030-031-034>040-042>050-260500-
...SOUTHEAST SOUTH CAROLINA...

CITY           SKY/WX    TMP DP  RH WIND       PRES   REMARKS
N CHARLESTON   CLOUDY    69  65  86 SW13      29.65R
WATERFRONT PRK NOT AVBL
MOUNT PLEASANT FAIR      70  66  88 MISG      29.65R
PINOPOLIS      NOT AVBL
MONCKS CORNER  LGT RAIN  72  66  83 SW12G17   29.64R
SUMMERVILLE    MOCLDY    70  68  94 SW10      29.66R
BEAUFORT MCAS  CLOUDY    67  64  90 SW14      29.68F
BEAUFORT ARPT  CLOUDY    66  64  94 S6        29.67F
HILTON HEAD IS CLOUDY    66  66 100 S6        29.70F
WALTERBORO     HVY RAIN  66  64  94 SW9       29.70R
ALLENDALE      CLOUDY    68  66  94 CALM      29.66F

...SOUTHERN MIDLANDS AND PEE DEE...

CITY           SKY/WX    TMP DP  RH WIND       PRES   REMARKS
GEORGETOWN     NOT AVBL
KINGSTREE      NOT AVBL
ORANGEBURG     CLOUDY    71  66  84 SW15G23   29.64R
BARNWELL       FAIR      68  66  94 SW10      29.66F
AIKEN          FAIR      68  63  83 SW8       29.66S
MANNING        LGT RAIN  70  54  56 SW12G17   29.62S
COLUMBIA       CLOUDY    71  66  84 SW8       29.60F
SUMTER         NOT AVBL
FLORENCE       CLOUDY    66  64  93 S3        29.60S
MYRTLE BEACH   CLOUDY    72  66  83 S8        29.62F
N MYRTLE BEACH CLOUDY    69  67  93 SW12      29.60F

$$

GAZ063-065-086>088-099>101-113>116-118-119-134>141-150-260500-
...SOUTHEAST GEORGIA...

CITY           SKY/WX    TMP DP  RH WIND       PRES   REMARKS
SAVANNAH ARPT  CLOUDY    65  64  97 S5        29.68F
HUNTER AAF     NOT AVBL
FORT STEWART   NOT AVBL
STATESBORO       N/A     65  65 100 CALM      29.68F
SYLVANIA       CLOUDY    65  65 100 CALM      29.68F
CLAXTON        FAIR      66  66 100 SW6       29.68S

...CSRA...CENTRAL AND FAR SOUTHEAST GEORGIA...

CITY           SKY/WX    TMP DP  RH WIND       PRES   REMARKS
THOMSON        CLOUDY    70  68  95 SW6       29.68S
AUGUSTA-BUSH   MOCLDY    68  66  93 S9        29.64S
AUGUSTA-DANIEL MOCLDY    69  65  86 SW9       29.64F
SWAINSBORO     NOT AVBL
VIDALIA        CLEAR     66  64  94 SW8       29.69S
EASTMAN        FAIR      67  67 100 SW6       29.65S
HAZLEHURST     FAIR      67  67 100 SW3       29.70F
ALMA           PTCLDY    67  66  97 SW5       29.73R
WAYCROSS       MOCLDY    72  71  97 CALM      29.72F
JESUP          FAIR      70  68  94 SW6       29.72F
BAXLEY         FAIR      68  66  94 CALM      29.71S
BRUNSWICK      CLOUDY    70  66  88 CALM      29.73F
SAINT SIMONS   CLOUDY    69  67  93 CALM      29.73F

$$

SCZ027-028-034-036>038-045-046-048>050-GAZ119-141-260500-
...LAKE AND SUPPLEMENTAL COASTAL OBSERVATIONS...

STATION/POSITION TIME  TEMP    WIND        PRES    WAVE   SWELL
                       AIR SEA DIR/SP/G            HT/PER HT/PER/DIR
                 (UTC) (F)     (DEG/KT/KT) (MB)    (FT/S) (FT/S/D)
UPR LAKE MARION  NOT AVBL
WINYAH BAY       0245   70     220/  8     1002.0
LAKE MURRAY      0300   69     220/  6/  7 1002.4R
ACE BASIN NERRS  NOT AVBL
FORT PULASKI     0306   66 70  140/  4/  6 1007.2F
SAPELO ISLAND    0300   70     260/  4     1007.0S

$$

ANZ835-935-AMZ111-154-330-350-352-354-370-450-454-472-260500-
...C-MAN AND BUOY OBSERVATIONS...

STATION/POSITION TIME  TEMP    WIND        PRES    WAVE   SWELL
                       AIR SEA DIR/SP/G            HT/PER HT/PER/DIR
                 (UTC) (F)     (DEG/KT/KT) (MB)    (FT/S) (FT/S/D)
BUOY 41004       0350   71 71  220/ 19/ 25 1004.3F   5/ 6   2/10
BUOY 41008       0350   69 69  230/  2/  4 1007.1F   3/ 6   2/160/ 6
FOLLY BEACH CMAN 0400   68     240/ 10/ 13 1004.6R
CAPERS NEARSHORE 0308   69     220/ 21/ 29 1003.8
FRIPP NEARSHORE  0300   68     210/ 14/ 16 1006.0F


STATION/POSITION TIME  TEMP    WIND        PRES    WAVE   SWELL
                       AIR SEA DIR/SP/G            HT/PER HT/PER/DIR
                 (UTC) (F)     (DEG/KT/KT) (MB)    (FT/S) (FT/S/D)
5E ST. MARYS GA  0321      69                N/A     2/13   2/ 80/13
FRYING PAN BUOY  0350   74 71  230/ 19/ 23 1003.4F   6/ 7   2/210/12
BUOY 41025       0350   66 76  360/  8/ 10 1000.6F   4/ 6   3/190/ 6
CAPE LOOKOUT NC  0400   66     260/ 12/ 15 1001.1F
BUOY 41002       0350   73 71  220/ 23/ 29 1005.0F   6/ 6   2/ 40/13
BUOY 41010       0320   80 79  210/ 21/ 25 1009.1R
ST AUGUSTINE FL  0400   77 68  230/  9/ 12 1008.0F


$$



USA.gov is the U.S. government's official web portal to all federal, state and local government web resources and services.